Tracking 20232 objects as of 20-Jan-2020
HD Live streaming from Space Station
objects crossing your sky now

NOAA 16 DEB

Track NOAA 16 DEB now!
10-day predictions


NORAD ID: 41148
Int'l Code: 2000-055CF
Perigee: 699.0 km
Apogee: 825.3 km
Inclination: 98.9 °
Period: 99.9 minutes
Semi major axis: 7133 km
RCS: Unknown
Launch date: September 21, 2000
Source: United States (US)
Launch site: AIR FORCE WESTERN TEST RANGE (AFWTR)

Note: This is SATELLITE DEBRIS
aabbcc
Your satellite tracking list
Your tracking list is empty




NASA's NSSDC Master Catalog

Two Line Element Set (TLE):
1 41148U 00055CF  20019.62001898 +.00001884 +00000-0 +57387-3 0  9998
2 41148 098.8631 160.1397 0088524 319.3440 040.1161 14.41044101217152
Source of the keplerian elements: AFSPC